STARLINK-11556, 62838

Orbit data source: Space-Track

STARLINK-11556, 62838 is a payload satellite owned by SpaceX/Seattle (US) in LEO that was launched on Mon, 27 Jan 2025 UTC via an FALCON 9 launch vehicle from the Air Force Eastern Test Range (AFETR). Payload-class satellites include a variety of spacecraft equipped with specific instruments for various scientific and technological missions. These include communications satellites like Starlink; space stations such as the ISS; scientific satellites like the Hubble; Earth observation satellites from companies like Planet Labs, Umbra, and HawkEye 360; GPS; miniature CubeSats for education and research; and military/defense satellites.

Loading next visibility...
Identifier
62838, 2025-019K
Orbit
LEO
Last TLE update
15 hours ago
Origin
Manufacturer
SpaceX/Seattle
Mission
Operational Commercial Communications
Bus & Motor
STARLINK V2M, Unknown motor
Mass
730 kg wet, ~700 kg dry
Launch date (UTC)
2025-01-27 (5 months ago)
Launch vehicle
FALCON 9
Launch site
Air Force Eastern Test Range (AFETR)
Object type
Payload
Rocket body
Debris
Shape & HBR
Box + 2 Pan, 29 m
Radar Cross Section
36.964 m², Large (>1 m²)

Expand to show TLE details & history

TLE from 15 hours ago
0 STARLINK-11556
1 62838U 25019K   25183.23955724  .00196400  00000-0  14906-2 0  9992
2 62838  43.0020  15.4158 0003061 278.4219  81.6302 15.70958824 24493
Epoch: 2025-07-02T05:44Z
TLE epoch observation values (Epoch: 2025-07-02T05:44:57.745Z)
Latitude
Longitude
8.65169°
Altitude
355.627 km
Speed
7.698 km/s
True Right ascension
01h 01m 39s
True Declination
0° 00' 00"
Sunlit
Object was in daylight at epoch
Visualization orbit readout
Latitude
-37.97443°
Longitude
-118.72376°
Altitude
365.067 km
Speed
7.692 km/s
Apparent Right ascension
18h 18m 32s
Apparent Declination
-42° 12' 32"
Sunlit
Object is in full shadow
Visualization observer readout
Local Sidereal Time
08:14:57
Azimuth
105.515° ESE
Elevation
-68.045°
Doppler factor
1
Orbital elements
Apogee altitude
360.199 km
Perigee altitude
356.075 km
Semi-major axis
6,736.274 km
Eccentricity
0.00031
Inclination
43.002°
RAAN
15.4158°
Arg. of periapsis
278.4219°
True anomaly
Unknown
Mean anomaly
81.6302°
Eccentric anomaly
Unknown
Mean motion
3.92567 °/min
Orbital period
91.7 mins
BSTAR
0.0014906
Loading maneuver chart data...
Loading SW <> Apogee altitude chart data...
Loading historical data...
Loading historical data...
Loading historical data...
Loading historical data...
Loading historical data...
Loading historical data...
Loading historical data...

STARLINK-11556 Visibility forecast

Observer location: undefined°, undefined°

Span
Click to sort rows by Start time (UTC) header in descending order
Start Az.
Max El. time (UTC)
Max El. Az.
Max El.
End time (UTC)
End Az.
5 mins2025-07-02 21:27:54.258Z277.251° WNW2025-07-02 21:29:54.258Z232.338° WSW33.607°2025-07-02 21:32:54.258Z132.564° SE
4 mins2025-07-03 17:06:54.258Z260.793° W2025-07-03 17:08:54.258Z6.346° NNE43.642°2025-07-03 17:10:54.258Z68.138° E
4 mins2025-07-03 20:19:54.258Z288.206° WNW2025-07-03 20:20:54.258Z287.713° WNW42.032°2025-07-03 20:23:54.258Z109.243° ESE
|